Location: Newark
(33.2833°N, 8.3333°W)
Time: 06:12:02
(UTC+00:00)

Envisat - Pass Details

Date: 20 September 2019
Orbit: 764 x 766 km, 98.1° (Epoch: 19 October)

Event Time Altitude Azimuth Distance (km) Brightness Sun altitude
Rises 19:19:13 0° 184° (S) 3,216 6.2 -10.4°
Reaches altitude 10° 19:21:38 10° 191° (S) 2,294 5.5 -10.9°
Maximum altitude 19:26:23 41° 261° (W) 1,099 4.4 -11.9°
Drops below altitude 10° 19:31:11 10° 332° (NNW) 2,307 6.0 -12.9°
Sets 19:33:37 0° 339° (NNW) 3,237 6.7 -13.4°
